sat.trackr.live / text

‹ back to catalog

STARLINK-32320

NORAD 61638 · 2024-191T

PAYLOAD ACTIVE UNKNOWN

§ Identity

Operator
Country
US
Launch date
2024-10-23
Launch site
AFETR
Launch vehicle
Mass (kg)
RCS (m²)

Purposes: comms

External: N2YO · Heavens-Above · Gunter

§ Orbital elements

Epoch: 2026-09-21T00:19:15.518784Z

Period
94.27 min
Inclination
43.0000°
Eccentricity
0.0001260
Mean motion
15.27578904 rev/d
Perigee alt
482.2 km
Apogee alt
483.9 km
Semi-major
6,861.2 km
B*
5.4408e-6
RAAN
135.3124°
Arg perigee
269.8916°
Mean anomaly
90.1791°
Rev number
10,736

§ Raw data

STARLINK-323201 61638U 24191T   26264.01337406 -.00000112  00000+0  54408-5 0  99952 61638  43.0000 135.3124 0001260 269.8916  90.1791 15.27578904107364

JSON: /api/v1/satellites/61638 · /tle

For live sub-satellite position, see the globe view (requires WebGL).

§ Visibility from observer

Set your observer location to see the next 7 days of passes ≥ 10°. The values pass through the URL so the page stays shareable.

No JS? Fill the form by hand. The geolocation button needs JavaScript.